| time (UTC) | temp F | wind direction | speed MPH | gust MPH | rain 1hr in | rain 24hr in | rain mn in | humidity % | barometer mb |
| 20260904220024 | 63 | 92 | 11.0 | 16.0 | 0.40 | 1.40 | 1.40 | 100 | 1005.6 |
| 20260904214518 | 63 | 65 | 8.0 | 19.0 | 0.43 | 1.36 | 1.36 | 100 | 1005.6 |
| 20260904213026 | 63 | 98 | 8.0 | 19.0 | 0.45 | 1.29 | 1.29 | 100 | 1005.7 |
| 20260904211512 | 63 | 80 | 10.0 | 15.0 | 0.36 | 1.14 | 1.14 | 100 | 1006.1 |
| 20260904210023 | 63 | 82 | 11.0 | 18.0 | 0.28 | 0.99 | 0.99 | 100 | 1006.4 |
| 20260904204508 | 63 | 71 | 8.0 | 17.0 | 0.31 | 0.93 | 0.93 | 100 | 1006.7 |
| 20260904203005 | 63 | 72 | 7.0 | 21.0 | 0.26 | 0.84 | 0.84 | 100 | 1006.9 |
| 20260904201502 | 63 | 56 | 8.0 | 14.0 | 0.26 | 0.79 | 0.79 | 100 | 1007.3 |
| 20260904200114 | 63 | 80 | 7.0 | 15.0 | 0.19 | 0.71 | 0.71 | 99 | 1007.8 |
| 20260904194559 | 63 | 76 | 7.0 | 13.0 | 0.10 | 0.62 | 0.62 | 99 | 1008.1 |
| 20260904193055 | 63 | 92 | 9.0 | 17.0 | 0.06 | 0.57 | 0.57 | 99 | 1008.4 |
| 20260904191551 | 63 | 96 | 8.0 | 17.0 | 0.01 | 0.53 | 0.53 | 98 | 1008.4 |
| 20260904190049 | 63 | 82 | 5.0 | 15.0 | 0.00 | 0.52 | 0.52 | 99 | 1008.6 |
| 20260904184548 | 63 | 122 | 10.0 | 15.0 | 0.00 | 0.52 | 0.52 | 98 | 1008.9 |
| 20260904183046 | 64 | 105 | 6.0 | 14.0 | 0.00 | 0.52 | 0.52 | 98 | 1009.1 |
| 20260904181550 | 64 | 154 | 7.0 | 18.0 | 0.00 | 0.52 | 0.52 | 98 | 1009.4 |
| 20260904180043 | 64 | 117 | 11.0 | 20.0 | 0.00 | 0.52 | 0.52 | 98 | 1009.4 |
| 20260904174548 | 64 | 134 | 4.0 | 13.0 | 0.00 | 0.52 | 0.52 | 98 | 1009.5 |
| 20260904173043 | 64 | 82 | 8.0 | 17.0 | 0.02 | 0.52 | 0.52 | 98 | 1009.1 |
| 20260904171552 | 64 | 80 | 10.0 | 16.0 | 0.03 | 0.52 | 0.52 | 99 | 1009.5 |
| 20260904170036 | 64 | 81 | 11.0 | 16.0 | 0.03 | 0.52 | 0.52 | 99 | 1009.9 |
| 20260904164533 | 63 | 91 | 6.0 | 16.0 | 0.05 | 0.52 | 0.52 | 99 | 1010.4 |
| 20260904163032 | 64 | 94 | 7.0 | 14.0 | 0.06 | 0.50 | 0.50 | 99 | 1010.4 |
| 20260904161535 | 64 | 109 | 4.0 | 14.0 | 0.08 | 0.49 | 0.49 | 99 | 1010.7 |
| 20260904160029 | 64 | 76 | 7.0 | 12.0 | 0.10 | 0.49 | 0.49 | 100 | 1010.6 |
| 20260904154527 | 63 | 98 | 8.0 | 16.0 | 0.11 | 0.47 | 0.47 | 99 | 1010.9 |
| 20260904153025 | 62 | 112 | 9.0 | 15.0 | 0.11 | 0.44 | 0.44 | 99 | 1011.1 |
| 20260904151522 | 62 | 101 | 7.0 | 11.0 | 0.12 | 0.41 | 0.41 | 99 | 1011.4 |
| 20260904150026 | 62 | 105 | 6.0 | 12.0 | 0.15 | 0.39 | 0.39 | 99 | 1011.6 |
| 20260904144518 | 62 | 94 | 5.0 | 13.0 | 0.15 | 0.36 | 0.36 | 99 | 1011.7 |
| 20260904143017 | 62 | 93 | 9.0 | 16.0 | 0.13 | 0.33 | 0.33 | 99 | 1012.0 |
| 20260904141514 | 62 | 97 | 5.0 | 10.0 | 0.09 | 0.28 | 0.28 | 99 | 1012.4 |
| 20260904140012 | 62 | 87 | 6.0 | 11.0 | 0.05 | 0.24 | 0.24 | 98 | 1012.7 |
| 20260904134510 | 62 | 103 | 4.0 | 11.0 | 0.05 | 0.21 | 0.21 | 98 | 1012.9 |
| 20260904133007 | 62 | 115 | 3.0 | 6.0 | 0.05 | 0.20 | 0.20 | 99 | 1013.2 |
| 20260904131506 | 62 | 102 | 4.0 | 9.0 | 0.07 | 0.20 | 0.20 | 99 | 1013.3 |
| 20260904130006 | 62 | 55 | 3.0 | 9.0 | 0.10 | 0.19 | 0.19 | 98 | 1013.5 |
| 20260904124505 | 62 | 94 | 5.0 | 9.0 | 0.09 | 0.16 | 0.16 | 98 | 1013.9 |
| 20260904123105 | 62 | 90 | 5.0 | 10.0 | 0.10 | 0.15 | 0.15 | 98 | 1014.0 |
| 20260904121601 | 62 | 101 | 1.0 | 7.0 | 0.11 | 0.13 | 0.13 | 98 | 1014.0 |
| 20260904114559 | 62 | 103 | 1.0 | 4.0 | 0.07 | 0.07 | 0.07 | 97 | 1014.2 |
| 20260904113058 | 63 | 140 | 1.0 | 7.0 | 0.05 | 0.05 | 0.05 | 96 | 1014.2 |
| 20260904111556 | 63 | 133 | 2.0 | 8.0 | 0.02 | 0.02 | 0.02 | 95 | 1014.1 |
| 20260904110057 | 63 | 130 | 1.0 | 9.0 | 0.00 | 0.00 | 0.00 | 94 | 1014.2 |
| 20260904104603 | 63 | 126 | 4.0 | 10.0 | 0.00 | 0.00 | 0.00 | 93 | 1014.2 |
| 20260904103105 | 63 | 125 | 2.0 | 7.0 | 0.00 | 0.00 | 0.00 | 94 | 1014.1 |
| 20260904101551 | 62 | 144 | 1.0 | 4.0 | 0.00 | 0.00 | 0.00 | 95 | 1014.2 |
| 20260904100050 | 61 | 85 | 1.0 | 4.0 | 0.00 | 0.00 | 0.00 | 97 | 1014.2 |
| 20260904094549 | 61 | 159 | 0.0 | 3.0 | 0.00 | 0.00 | 0.00 | 98 | 1014.4 |
| 20260904093048 | 60 | 124 | 0.0 | 2.0 | 0.00 | 0.00 | 0.00 | 99 | 1014.3 |
| 20260904091603 | 60 | 129 | 0.0 | 3.0 | 0.00 | 0.00 | 0.00 | 99 | 1014.5 |
| 20260904090045 | 59 | 227 | 0.0 | 0.0 | 0.00 | 0.00 | 0.00 | 99 | 1014.6 |
| 20260904084544 | 59 | 227 | 0.0 | 2.0 | 0.00 | 0.00 | 0.00 | 99 | 1014.7 |
| 20260904083102 | 59 | 227 | 0.0 | 1.0 | 0.00 | 0.00 | 0.00 | 99 | 1014.7 |
| 20260904081541 | 59 | 227 | 0.0 | 0.0 | 0.00 | 0.00 | 0.00 | 99 | 1015.0 |
| 20260904080040 | 59 | 227 | 0.0 | 2.0 | 0.00 | 0.00 | 0.00 | 99 | 1015.1 |
| 20260904074559 | 59 | 227 | 0.0 | 0.0 | 0.00 | 0.00 | 0.00 | 98 | 1015.2 |
| 20260904073038 | 59 | 227 | 0.0 | 0.0 | 0.00 | 0.00 | 0.00 | 98 | 1015.4 |
| 20260904071534 | 59 | 227 | 0.0 | 0.0 | 0.00 | 0.00 | 0.00 | 98 | 1015.7 |
| 20260904070033 | 60 | 227 | 0.0 | 0.0 | 0.00 | 0.00 | 0.00 | 98 | 1016.0 |
| 20260904064535 | 60 | 227 | 0.0 | 0.0 | 0.00 | 0.00 | 0.00 | 98 | 1016.2 |
| 20260904063029 | 60 | 227 | 0.0 | 0.0 | 0.00 | 0.00 | 0.00 | 98 | 1016.4 |
| 20260904061537 | 60 | 227 | 0.0 | 0.0 | 0.00 | 0.00 | 0.00 | 98 | 1016.6 |
| 20260904060028 | 60 | 227 | 0.0 | 2.0 | 0.00 | 0.00 | 0.00 | 97 | 1017.0 |
| 20260904054528 | 60 | 133 | 0.0 | 0.0 | 0.00 | 0.00 | 0.00 | 97 | 1016.9 |
| 20260904053022 | 60 | 133 | 0.0 | 0.0 | 0.00 | 0.00 | 0.00 | 97 | 1017.2 |
| 20260904051521 | 61 | 133 | 0.0 | 0.0 | 0.00 | 0.00 | 0.00 | 96 | 1017.2 |
| 20260904050019 | 61 | 133 | 0.0 | 0.0 | 0.00 | 0.00 | 0.00 | 96 | 1017.5 |
| 20260904044519 | 61 | 133 | 0.0 | 1.0 | 0.00 | 0.00 | 0.00 | 96 | 1017.6 |
| 20260904043017 | 61 | 133 | 0.0 | 0.0 | 0.00 | 0.00 | 0.00 | 95 | 1017.7 |
| 20260904041516 | 61 | 133 | 0.0 | 0.0 | 0.00 | 0.00 | 0.00 | 94 | 1017.7 |
| 20260904040013 | 61 | 133 | 0.0 | 1.0 | 0.00 | 0.00 | 0.00 | 94 | 1017.8 |
| 20260904034510 | 62 | 134 | 0.0 | 3.0 | 0.00 | 0.00 | 0.00 | 93 | 1018.1 |
| 20260904033008 | 62 | 138 | 0.0 | 4.0 | 0.00 | 0.00 | 0.00 | 93 | 1018.2 |
| 20260904031507 | 62 | 144 | 2.0 | 8.0 | 0.00 | 0.00 | 0.00 | 93 | 1018.3 |
| 20260904030006 | 62 | 139 | 2.0 | 8.0 | 0.00 | 0.00 | 0.00 | 93 | 1018.5 |
| 20260904024504 | 62 | 94 | 2.0 | 7.0 | 0.00 | 0.00 | 0.00 | 94 | 1018.5 |
| 20260904023002 | 62 | 138 | 0.0 | 7.0 | 0.00 | 0.00 | 0.00 | 93 | 1018.5 |
| 20260904021501 | 62 | 111 | 2.0 | 7.0 | 0.00 | 0.00 | 0.00 | 93 | 1018.8 |
| 20260904020100 | 62 | 144 | 1.0 | 8.0 | 0.00 | 0.00 | 0.00 | 93 | 1018.9 |
| 20260904014638 | 62 | 152 | 2.0 | 6.0 | 0.00 | 0.00 | 0.00 | 93 | 1018.9 |
| 20260904013057 | 62 | 148 | 1.0 | 5.0 | 0.00 | 0.00 | 0.00 | 94 | 1019.1 |
| 20260904011607 | 62 | 151 | 1.0 | 5.0 | 0.00 | 0.00 | 0.00 | 94 | 1019.2 |
| 20260904004556 | 61 | 167 | 1.0 | 9.0 | 0.00 | 0.00 | 0.00 | 97 | 1019.6 |
| 20260904003101 | 60 | 192 | 1.0 | 6.0 | 0.00 | 0.00 | 0.00 | 97 | 1019.5 |
| 20260904001552 | 60 | 108 | 0.0 | 0.0 | 0.00 | 0.00 | 0.00 | 96 | 1019.7 |
| 20260904000052 | 61 | 121 | 0.0 | 1.0 | 0.00 | 0.00 | 0.00 | 96 | 1019.9 |
| 20260903234550 | 61 | 121 | 0.0 | 0.0 | 0.00 | 0.00 | 0.00 | 95 | 1019.9 |
| 20260903233103 | 61 | 121 | 0.0 | 1.0 | 0.00 | 0.00 | 0.00 | 94 | 1020.0 |
| 20260903231546 | 62 | 121 | 0.0 | 2.0 | 0.00 | 0.00 | 0.00 | 94 | 1019.9 |
| 20260903230049 | 62 | 121 | 0.0 | 0.0 | 0.00 | 0.00 | 0.00 | 93 | 1020.0 |
| 20260903224540 | 63 | 121 | 1.0 | 6.0 | 0.00 | 0.00 | 0.00 | 92 | 1020.0 |
| 20260903223040 | 63 | 105 | 0.0 | 3.0 | 0.00 | 0.00 | 0.00 | 92 | 1020.0 |
| 20260903221539 | 63 | 95 | 1.0 | 6.0 | 0.00 | 0.00 | 0.00 | 91 | 1020.1 |
| 20260903220049 | 64 | 103 | 1.0 | 6.0 | 0.00 | 0.00 | 0.00 | 90 | 1020.3 |